Viroqua, WI

9:07 AM CST on December 16, 2017 (GMT -0600)
Viroqua

Weather History for KY51 - October, 2011

Change the Weather History Date:

Sunday, October 23, 2011

  Actual Average (KCMY) Record (KCMY)
Temperature  
Mean Temperature 52 °F -  
Max Temperature 64 °F 57 °F 82 °F (1963)
Min Temperature 41 °F 36 °F 15 °F (1969)
Degree Days  
Heating Degree Days 12    
Growing Degree Days 2 (Base 50)    
Moisture  
Dew Point 39 °F    
Average Humidity 65    
Maximum Humidity 100    
Minimum Humidity 46    
Precipitation  
Precipitation 0.15 in - - ()
Sea Level Pressure  
Sea Level Pressure 29.89 in    
Wind  
Wind Speed 6 mph (SSW)    
Max Wind Speed 18 mph    
Max Gust Speed 26 mph    
Visibility 10 miles    
Events      
Averages and records for this station are not official NWS values.
T = Trace of Precipitation, MM = Missing Value Source: NWS Daily Summary

Daily Weather History Graph

Daily Weather History Graph

Search for Another Location

Airport or City:

Trip Planner

Search our weather history database for the weather conditions in past years. The results will help you decide how hot, cold, wet, or windy it might be!

Date:

Astronomy

Oct. 23, 2011 Rise Set
Actual Time 7:27 AM CDT 6:07 PM CDT
Civil Twilight 6:58 AM CDT 6:37 PM CDT
Nautical Twilight 6:24 AM CDT 7:10 PM CDT
Astronomical Twilight 5:51 AM CDT 7:43 PM CDT
Moon 3:28 AM CDT (10/23) 4:03 PM CDT (10/23)
Length of Visible Light 11h 38m
Length of Day
10h 40m
Waning Crescent, 14% of the Moon is Illuminated
Oct 23
Waning Crescent
Oct 26
New
Nov 2
First Quarter
Nov 10
Full
Nov 18
Last Quarter

Hourly Weather History & Observations

Time (CDT) Temp. Windchill Dew Point Humidity Pressure Visibility Wind Dir Wind Speed Gust Speed Precip Events Conditions
12:15 AM 44.6 °F - 33.4 °F 65% 29.99 in 10.0 mi Calm Calm - N/A   Clear
12:35 AM 45.9 °F - 33.3 °F 61% 29.99 in 10.0 mi Calm Calm - N/A   Clear
12:55 AM 47.5 °F - 32.5 °F 56% 29.98 in 10.0 mi Calm Calm - N/A   Clear
1:15 AM 47.8 °F - 32.2 °F 55% 29.98 in 10.0 mi Calm Calm - N/A   Clear
1:35 AM 48.0 °F - 32.2 °F 54% 29.98 in 10.0 mi Calm Calm - N/A   Clear
1:55 AM 47.3 °F - 32.4 °F 56% 29.97 in 10.0 mi SE 4.6 mph - N/A   Clear
2:15 AM 46.2 °F 44.1 °F 32.7 °F 59% 29.97 in 10.0 mi SE 4.6 mph - N/A   Clear
2:35 AM 43.9 °F 40.5 °F 32.5 °F 64% 29.97 in 10.0 mi SE 5.8 mph - N/A   Clear
2:55 AM 41.5 °F 37.1 °F 32.4 °F 70% 29.97 in 10.0 mi SSE 6.9 mph - N/A   Clear
3:15 AM 43.0 °F 39.5 °F 32.4 °F 66% 29.97 in 10.0 mi South 5.8 mph - N/A   Clear
3:35 AM 44.1 °F 41.5 °F 32.2 °F 63% 29.96 in 10.0 mi SSE 4.6 mph - N/A   Clear
3:55 AM 44.2 °F 41.8 °F 32.0 °F 62% 29.96 in 10.0 mi SSE 4.6 mph - N/A   Clear
4:15 AM 44.2 °F 41.8 °F 32.0 °F 62% 29.96 in 10.0 mi SSE 4.6 mph - N/A   Clear
4:35 AM 44.2 °F 41.0 °F 32.0 °F 62% 29.96 in 10.0 mi South 5.8 mph - N/A   Mostly Cloudy
4:55 AM 43.7 °F 40.3 °F 32.5 °F 65% 29.96 in 10.0 mi South 5.8 mph - N/A   Overcast
5:15 AM 43.2 °F 40.5 °F 32.4 °F 66% 29.96 in 10.0 mi South 4.6 mph - N/A   Mostly Cloudy
5:35 AM 42.8 °F 39.3 °F 32.4 °F 67% 29.95 in 10.0 mi SSE 5.8 mph - N/A   Scattered Clouds
5:55 AM 42.8 °F 38.0 °F 32.9 °F 68% 29.95 in 10.0 mi SSE 8.1 mph - N/A   Clear
6:15 AM 43.0 °F 39.5 °F 33.6 °F 70% 29.95 in 10.0 mi South 5.8 mph - N/A   Clear
6:55 AM 44.1 °F 40.8 °F 33.8 °F 67% 29.94 in 10.0 mi South 5.8 mph - N/A   Mostly Cloudy
7:15 AM 44.2 °F 40.3 °F 34.0 °F 67% 29.94 in 10.0 mi South 6.9 mph - N/A   Mostly Cloudy
7:35 AM 44.2 °F 39.7 °F 34.0 °F 67% 29.94 in 10.0 mi South 8.1 mph - N/A   Scattered Clouds
7:55 AM 44.8 °F 41.0 °F 34.2 °F 66% 29.93 in 10.0 mi South 6.9 mph - N/A   Mostly Cloudy
8:15 AM 44.6 °F 40.2 °F 34.9 °F 69% 29.94 in 10.0 mi SSW 8.1 mph - N/A   Mostly Cloudy
8:35 AM 44.6 °F 41.4 °F 35.6 °F 71% 29.94 in 10.0 mi SSW 5.8 mph - N/A   Overcast
8:55 AM 45.3 °F 43.0 °F 36.3 °F 71% 29.93 in 10.0 mi SSW 4.6 mph - N/A   Mostly Cloudy
9:15 AM 47.3 °F - 36.9 °F 67% 29.93 in 10.0 mi SSW 6.9 mph - N/A   Overcast
10:15 AM 48.7 °F - 37.0 °F 64% 29.92 in 10.0 mi SSW 8.1 mph - N/A   Mostly Cloudy
10:35 AM 50.4 °F - 37.4 °F 61% 29.91 in 10.0 mi SW 9.2 mph - N/A   Mostly Cloudy
10:55 AM 52.5 °F - 37.8 °F 57% 29.90 in 10.0 mi SSW 10.4 mph - N/A   Scattered Clouds
11:15 AM 53.6 °F - 37.9 °F 55% 29.90 in 10.0 mi SW 12.7 mph - N/A   Scattered Clouds
11:35 AM 55.8 °F - 38.1 °F 52% 29.90 in 10.0 mi SSW 11.5 mph - N/A   Scattered Clouds
11:55 AM 56.7 °F - 38.3 °F 50% 29.88 in 10.0 mi SW 13.8 mph - N/A   Clear
12:15 PM 58.8 °F - 38.7 °F 47% 29.88 in 10.0 mi SSW 12.7 mph 17.3 mph N/A   Scattered Clouds
12:35 PM 59.2 °F - 39.0 °F 47% 29.86 in 10.0 mi South 10.4 mph - N/A   Scattered Clouds
12:55 PM 59.0 °F - 40.6 °F 51% 29.85 in 10.0 mi SW 12.7 mph - N/A   Mostly Cloudy
1:15 PM 56.8 °F - 43.0 °F 60% 29.84 in 10.0 mi SSW 11.5 mph - N/A   Scattered Clouds
1:35 PM 57.4 °F - 42.4 °F 57% 29.83 in 10.0 mi SSW 12.7 mph 16.1 mph N/A   Mostly Cloudy
1:55 PM 59.7 °F - 42.6 °F 53% 29.82 in 10.0 mi South 10.4 mph - N/A   Scattered Clouds
2:15 PM 61.2 °F - 42.6 °F 51% 29.81 in 10.0 mi SW 12.7 mph - N/A   Clear
2:35 PM 63.7 °F - 43.0 °F 47% 29.81 in 10.0 mi SW 16.1 mph - N/A   Clear
2:55 PM 64.9 °F - 43.7 °F 46% 29.81 in 10.0 mi SW 17.3 mph 24.2 mph N/A   Clear
3:15 PM 63.5 °F - 44.2 °F 49% 29.80 in 10.0 mi SW 15.0 mph 24.2 mph N/A   Scattered Clouds
3:35 PM 64.0 °F - 45.1 °F 50% 29.79 in 10.0 mi SW 16.1 mph 24.2 mph N/A   Scattered Clouds
3:55 PM 64.2 °F - 45.5 °F 51% 29.78 in 10.0 mi SW 17.3 mph 20.7 mph N/A   Scattered Clouds
4:15 PM 64.6 °F - 45.9 °F 51% 29.77 in 7.0 mi SW 11.5 mph - N/A   Scattered Clouds
4:35 PM 64.9 °F - 45.5 °F 49% 29.77 in 10.0 mi SW 10.4 mph - N/A   Scattered Clouds
4:55 PM 63.5 °F - 43.7 °F 48% 29.78 in 10.0 mi WSW 15.0 mph 23.0 mph N/A   Mostly Cloudy
5:15 PM 62.1 °F - 43.5 °F 51% 29.78 in 10.0 mi WSW 18.4 mph 23.0 mph N/A   Mostly Cloudy
5:35 PM 61.0 °F - 43.5 °F 53% 29.78 in 10.0 mi SW 15.0 mph - N/A   Scattered Clouds
5:55 PM 59.9 °F - 44.2 °F 56% 29.77 in 10.0 mi SW 12.7 mph 19.6 mph N/A   Mostly Cloudy
6:35 PM 54.5 °F - 47.1 °F 76% 29.82 in 10.0 mi West 9.2 mph - 0.05 in   Overcast
6:55 PM 54.3 °F - 48.4 °F 80% 29.84 in 3.0 mi West 11.5 mph 26.5 mph 0.13 in   Overcast
7:15 PM 52.3 °F - 49.1 °F 89% 29.82 in 10.0 mi WSW 6.9 mph - 0.01 in   Overcast
7:35 PM 51.1 °F - 50.5 °F 98% 29.82 in 10.0 mi SW 9.2 mph - 0.02 in   Overcast
7:55 PM 50.9 °F - 50.9 °F 100% 29.82 in 10.0 mi SW 6.9 mph - 0.02 in   Overcast
8:15 PM 50.4 °F - 50.4 °F 100% 29.81 in 10.0 mi Calm Calm - N/A   Overcast
8:35 PM 49.3 °F - 49.3 °F 100% 29.83 in 10.0 mi NW 6.9 mph - N/A   Scattered Clouds
8:55 PM 48.9 °F - 48.9 °F 100% 29.83 in 10.0 mi NW 9.2 mph - N/A   Clear
9:15 PM 49.1 °F - 48.9 °F 99% 29.84 in 10.0 mi NW 10.4 mph - N/A   Clear
9:35 PM 49.3 °F - 47.8 °F 95% 29.85 in 10.0 mi NNW 18.4 mph 24.2 mph N/A   Clear
9:55 PM 49.8 °F - 45.9 °F 86% 29.86 in 10.0 mi NNW 12.7 mph - N/A   Clear